Regional Weather Roundup
Issued by NWS

Home | Current Version | Previous Version | Graphics & Text | Print | Product List | Glossary On
Versions: 1 2 3 4 5 6 7 8 9 10 11 12 13 14 15 16 17 18 19 20 21 22 23 24 25 26 27 28 29 30 31 32 33 34 35 36 37 38 39 40 41 42 43 44 45 46 47 48 49 50
000
ASUS43 KFSD 272302
RWRSD

WEATHER ROUNDUP FOR SOUTH DAKOTA
NATIONAL WEATHER SERVICE SIOUX FALLS SD
600 PM CDT TUE JUN 27 2017

NOTE: "FAIR" INDICATES FEW OR NO CLOUDS BELOW 12,000 FEET WITH NO
SIGNIFICANT WEATHER AND/OR OBSTRUCTIONS TO VISIBILITY.


SDZ001>005-009-010-012>017-280000-
NORTHWEST AND NORTH CENTRAL SOUTH DAKOTA

CITY           SKY/WX    TMP DP  RH WIND       PRES   REMARKS
BUFFALO          N/A     87  45  23 NW25      29.55S
FAITH            N/A     94  45  18 W15G22    29.54F
MOBRIDGE       PTSUNNY   88  57  34 S16G25    29.50F
$$

SDZ012>016-024>037-041>051-057-063-072>074-280000-
SOUTHWEST AND SOUTH CENTRAL SOUTH DAKOTA

CITY           SKY/WX    TMP DP  RH WIND       PRES   REMARKS
RAPID CTY ARPT MOSUNNY   89  46  22 N13       29.59F
PIERRE         CLOUDY    90  59  35 S23G29    29.51F
CUSTER           N/A    N/A N/A N/A MISG        N/A  THUNDER
ELLSWORTH AFB  PTSUNNY   90  46  21 N21G28    29.59F
PHILIP         CLOUDY    94  56  27 CALM      29.52F
PINE RIDGE     MOSUNNY   80  51  36 S43G55    29.65R HAZE
SPEARFISH      LGT RAIN  82  46  28 NW17G25   29.70S
WINNER         FAIR      90  63  40 S25G35    29.59F
$$

SDZ004>011-016>023-039-040-280000-
NORTHEAST SOUTH DAKOTA

CITY           SKY/WX    TMP DP  RH WIND       PRES   REMARKS
ABERDEEN       MOSUNNY   80  51  36 S24G33    29.64F
WATERTOWN      CLOUDY    76  49  38 S23G33    29.71F
BROOKINGS      MOSUNNY   78  52  40 S30       29.71F
SISSETON         N/A     79  48  33 S22G32    29.68F
$$

SDZ017-020-022-023-036>040-048>070-280000-
SOUTHEAST SOUTH DAKOTA

CITY           SKY/WX    TMP DP  RH WIND       PRES   REMARKS
SIOUX FALLS    CLOUDY    78  56  46 SE22G29   29.75F
HURON          PTSUNNY   81  54  39 S22G36    29.62F
CHAMBERLAIN    PTSUNNY   87  64  46 SE23G31   29.60F
MITCHELL       PTSUNNY   84  57  39 SE24G35   29.65F
YANKTON        MOSUNNY   80  61  52 SE20G37   29.72F
$$

ABBREVIATIONS USED IN REMARKS
   TC - TEMPERATURE IN CELSIUS
  WCI - WIND CHILL INDEX
   HX - HEAT INDEX
  VSB - VISIBILITY





USA.gov is the U.S. government's official web portal to all federal, state and local government web resources and services.